Time,TemperatureF,DewpointF,PressureIn,WindDirection,WindDirectionDegrees,WindSpeedMPH,WindSpeedGustMPH,Humidity,HourlyPrecipIn,Conditions,Clouds,dailyrainin,SoftwareType,DateUTC
2013-03-25 00:00:00,68.1,65.4,29.72,SSW,203,0.0,5.0,91,0.01,,---,0.04,VWS V14.00,2013-03-25 04:00:00,
2013-03-25 00:01:00,68.1,65.4,29.72,SW,221,0.0,5.0,91,0.01,,---,0.04,VWS V14.00,2013-03-25 04:01:00,
2013-03-25 00:02:00,68.0,65.3,29.72,SW,221,0.0,0.0,91,0.01,,---,0.00,VWS V14.00,2013-03-25 04:02:00,
2013-03-25 00:05:00,68.0,65.3,29.72,WSW,246,0.0,5.0,91,0.01,,---,0.00,VWS V14.00,2013-03-25 04:05:00,
2013-03-25 00:10:00,67.9,65.2,29.72,SW,215,1.0,5.0,91,0.01,,---,0.00,VWS V14.00,2013-03-25 04:10:00,
2013-03-25 00:15:00,67.7,65.0,29.72,SW,228,0.0,5.0,91,0.01,,---,0.00,VWS V14.00,2013-03-25 04:15:00,
2013-03-25 00:20:00,67.6,64.9,29.72,South,173,0.0,6.0,91,0.01,,---,0.00,VWS V14.00,2013-03-25 04:20:00,
2013-03-25 00:25:00,67.4,64.7,29.72,SW,224,0.0,6.0,91,0.01,,---,0.00,VWS V14.00,2013-03-25 04:25:00,
2013-03-25 00:30:00,67.3,64.6,29.72,SW,227,0.0,6.0,91,0.01,,---,0.00,VWS V14.00,2013-03-25 04:30:00,
2013-03-25 00:36:00,67.2,64.5,29.72,SW,236,0.0,4.0,91,0.00,,---,0.00,VWS V14.00,2013-03-25 04:36:00,
2013-03-25 00:41:00,67.0,64.3,29.72,West,260,1.0,4.0,91,0.00,,---,0.00,VWS V14.00,2013-03-25 04:41:00,
2013-03-25 00:47:00,66.9,64.2,29.72,West,260,0.0,4.0,91,0.00,,---,0.00,VWS V14.00,2013-03-25 04:47:00,
2013-03-25 00:52:00,66.8,64.1,29.72,WSW,254,0.0,4.0,91,0.00,,---,0.00,VWS V14.00,2013-03-25 04:52:00,
2013-03-25 00:57:00,66.6,63.9,29.72,WSW,254,0.0,4.0,91,0.00,,---,0.00,VWS V14.00,2013-03-25 04:57:00,
2013-03-25 01:00:00,66.5,63.8,29.72,WSW,254,0.0,4.0,91,0.00,,---,0.00,VWS V14.00,2013-03-25 05:00:00,
2013-03-25 01:02:00,66.5,63.8,29.72,WSW,254,0.0,0.0,91,0.00,,---,0.00,VWS V14.00,2013-03-25 05:02:00,
2013-03-25 01:07:00,66.4,64.0,29.72,SW,227,0.0,3.0,92,0.00,,---,0.00,VWS V14.00,2013-03-25 05:07:00,
2013-03-25 01:12:00,66.3,63.9,29.72,WSW,237,0.0,3.0,92,0.00,,---,0.00,VWS V14.00,2013-03-25 05:12:00,
2013-03-25 01:17:00,66.3,63.9,29.72,SSW,206,0.0,3.0,92,0.00,,---,0.00,VWS V14.00,2013-03-25 05:17:00,
2013-03-25 01:23:00,66.2,63.8,29.72,WSW,241,0.0,5.0,92,0.00,,---,0.00,VWS V14.00,2013-03-25 05:23:00,
2013-03-25 01:28:00,66.1,63.7,29.73,WSW,242,0.0,5.0,92,0.00,,---,0.00,VWS V14.00,2013-03-25 05:28:00,
2013-03-25 01:30:00,66.1,63.7,29.73,WSW,247,2.0,5.0,92,0.00,,---,0.00,VWS V14.00,2013-03-25 05:30:00,
2013-03-25 01:33:00,66.1,63.7,29.73,SW,227,1.0,4.0,92,0.00,,---,0.00,VWS V14.00,2013-03-25 05:33:00,
2013-03-25 02:00:00,66.0,63.3,29.73,SSW,211,0.0,6.0,91,0.00,,---,0.00,VWS V14.00,2013-03-25 06:00:00,
2013-03-25 02:30:00,65.8,63.4,29.73,SW,232,0.0,7.0,92,0.00,,---,0.00,VWS V14.00,2013-03-25 06:30:00,
2013-03-25 03:00:00,65.7,63.0,29.73,WSW,250,4.0,7.0,91,0.00,,---,0.00,VWS V14.00,2013-03-25 07:00:00,
2013-03-25 03:13:00,65.6,62.9,29.73,WSW,248,5.0,7.0,91,0.00,,---,0.00,VWS V14.00,2013-03-25 07:13:00,
2013-03-25 03:18:00,65.6,62.9,29.73,SW,236,3.0,7.0,91,0.00,,---,0.00,VWS V14.00,2013-03-25 07:18:00,
2013-03-25 03:23:00,65.6,62.9,29.73,SW,221,0.0,9.0,91,0.00,,---,0.00,VWS V14.00,2013-03-25 07:23:00,
2013-03-25 03:28:00,65.6,62.9,29.73,South,176,8.0,11.0,91,0.00,,---,0.00,VWS V14.00,2013-03-25 07:28:00,
2013-03-25 03:30:00,65.5,62.8,29.73,WSW,238,5.0,11.0,91,0.00,,---,0.00,VWS V14.00,2013-03-25 07:30:00,
2013-03-25 03:34:00,65.6,62.6,29.73,WSW,250,5.0,11.0,90,0.00,,---,0.00,VWS V14.00,2013-03-25 07:34:00,
2013-03-25 03:39:00,65.5,62.5,29.73,WSW,245,0.0,11.0,90,0.00,,---,0.00,VWS V14.00,2013-03-25 07:39:00,
2013-03-25 03:44:00,65.4,62.4,29.73,SSW,209,8.0,12.0,90,0.00,,---,0.00,VWS V14.00,2013-03-25 07:44:00,
2013-03-25 03:49:00,65.3,62.3,29.73,WSW,237,0.0,12.0,90,0.00,,---,0.00,VWS V14.00,2013-03-25 07:49:00,
2013-03-25 03:54:00,65.3,62.3,29.73,WSW,238,3.0,12.0,90,0.00,,---,0.00,VWS V14.00,2013-03-25 07:54:00,
2013-03-25 03:59:00,65.3,62.3,29.73,SW,234,0.0,13.0,90,0.00,,---,0.00,VWS V14.00,2013-03-25 07:59:00,
2013-03-25 04:00:00,65.3,62.3,29.73,SW,218,3.0,13.0,90,0.00,,---,0.00,VWS V14.00,2013-03-25 08:00:00,
2013-03-25 04:04:00,65.3,62.3,29.73,WSW,257,3.0,8.0,90,0.00,,---,0.00,VWS V14.00,2013-03-25 08:04:00,
2013-03-25 04:10:00,65.3,62.3,29.74,SSW,208,0.0,8.0,90,0.00,,---,0.00,VWS V14.00,2013-03-25 08:10:00,
2013-03-25 04:15:00,65.2,61.9,29.74,SSW,211,5.0,10.0,89,0.00,,---,0.00,VWS V14.00,2013-03-25 08:15:00,
2013-03-25 04:20:00,65.2,61.9,29.74,West,262,0.0,10.0,89,0.00,,---,0.00,VWS V14.00,2013-03-25 08:20:00,
2013-03-25 04:25:00,65.1,61.8,29.74,ESE,123,0.0,10.0,89,0.00,,---,0.00,VWS V14.00,2013-03-25 08:25:00,
2013-03-25 04:30:00,65.0,61.4,29.74,SE,146,0.0,10.0,88,0.00,,---,0.00,VWS V14.00,2013-03-25 08:30:00,
2013-03-25 04:36:00,64.9,61.3,29.74,North,355,2.0,4.0,88,0.00,,---,0.00,VWS V14.00,2013-03-25 08:36:00,
2013-03-25 04:41:00,64.8,61.2,29.75,SW,225,3.0,11.0,88,0.00,,---,0.00,VWS V14.00,2013-03-25 08:41:00,
2013-03-25 04:47:00,64.8,60.8,29.75,West,267,0.0,11.0,87,0.00,,---,0.00,VWS V14.00,2013-03-25 08:47:00,
2013-03-25 04:52:00,64.7,60.8,29.75,WSW,247,0.0,11.0,87,0.00,,---,0.00,VWS V14.00,2013-03-25 08:52:00,
2013-03-25 04:57:00,64.7,60.8,29.75,WSW,242,0.0,11.0,87,0.00,,---,0.00,VWS V14.00,2013-03-25 08:57:00,
2013-03-25 05:00:00,64.7,61.1,29.75,NW,319,0.0,11.0,88,0.00,,---,0.00,VWS V14.00,2013-03-25 09:00:00,
2013-03-25 05:02:00,64.7,61.1,29.75,SW,214,0.0,0.0,88,0.00,,---,0.00,VWS V14.00,2013-03-25 09:02:00,
2013-03-25 05:07:00,64.6,61.0,29.76,SW,232,0.0,3.0,88,0.00,,---,0.00,VWS V14.00,2013-03-25 09:07:00,
2013-03-25 05:12:00,64.6,61.0,29.75,SW,227,0.0,4.0,88,0.00,,---,0.00,VWS V14.00,2013-03-25 09:12:00,
2013-03-25 05:18:00,64.6,61.0,29.75,NW,311,0.0,5.0,88,0.00,,---,0.00,VWS V14.00,2013-03-25 09:18:00,
2013-03-25 05:23:00,64.5,60.9,29.75,SW,230,0.0,5.0,88,0.00,,---,0.00,VWS V14.00,2013-03-25 09:23:00,
2013-03-25 05:28:00,64.5,60.9,29.75,SW,231,0.0,6.0,88,0.00,,---,0.00,VWS V14.00,2013-03-25 09:28:00,
2013-03-25 05:30:00,64.5,60.9,29.76,SW,219,0.0,6.0,88,0.00,,---,0.00,VWS V14.00,2013-03-25 09:30:00,
2013-03-25 05:33:00,64.5,60.9,29.76,SSW,192,0.0,0.0,88,0.00,,---,0.00,VWS V14.00,2013-03-25 09:33:00,
2013-03-25 05:38:00,64.4,60.8,29.76,North,355,0.0,7.0,88,0.00,,---,0.00,VWS V14.00,2013-03-25 09:38:00,
2013-03-25 05:43:00,64.3,60.7,29.76,SSW,197,0.0,7.0,88,0.00,,---,0.00,VWS V14.00,2013-03-25 09:43:00,
2013-03-25 05:49:00,64.1,60.5,29.76,SW,230,0.0,7.0,88,0.00,,---,0.00,VWS V14.00,2013-03-25 09:49:00,
2013-03-25 05:54:00,64.0,60.4,29.76,West,275,3.0,7.0,88,0.00,,---,0.00,VWS V14.00,2013-03-25 09:54:00,
2013-03-25 05:59:00,63.8,60.2,29.76,SW,224,0.0,7.0,88,0.00,,---,0.00,VWS V14.00,2013-03-25 09:59:00,
2013-03-25 06:00:00,63.8,60.2,29.76,North,355,0.0,7.0,88,0.00,,---,0.00,VWS V14.00,2013-03-25 10:00:00,
2013-03-25 06:04:00,63.7,60.1,29.76,North,349,0.0,0.0,88,0.00,,---,0.00,VWS V14.00,2013-03-25 10:04:00,
2013-03-25 06:10:00,63.6,60.0,29.76,SW,236,1.0,4.0,88,0.00,,---,0.00,VWS V14.00,2013-03-25 10:10:00,
2013-03-25 06:20:00,63.3,60.0,29.76,WNW,290,0.0,6.0,89,0.00,,---,0.00,VWS V14.00,2013-03-25 10:20:00,
2013-03-25 06:25:00,63.1,59.8,29.77,NNW,329,0.0,6.0,89,0.00,,---,0.00,VWS V14.00,2013-03-25 10:25:00,
2013-03-25 06:30:00,62.9,59.6,29.77,NE,35,0.0,6.0,89,0.00,,---,0.00,VWS V14.00,2013-03-25 10:30:00,
2013-03-25 06:36:00,62.6,59.3,29.77,SW,229,0.0,3.0,89,0.00,,---,0.00,VWS V14.00,2013-03-25 10:36:00,
2013-03-25 06:41:00,62.3,59.0,29.77,SW,226,0.0,4.0,89,0.00,,---,0.00,VWS V14.00,2013-03-25 10:41:00,
2013-03-25 06:47:00,62.1,58.8,29.77,SW,225,1.0,5.0,89,0.00,,---,0.00,VWS V14.00,2013-03-25 10:47:00,
2013-03-25 06:52:00,62.0,58.7,29.78,SW,232,0.0,5.0,89,0.00,,---,0.00,VWS V14.00,2013-03-25 10:52:00,
2013-03-25 06:57:00,61.8,58.5,29.78,WNW,288,0.0,5.0,89,0.00,,---,0.00,VWS V14.00,2013-03-25 10:57:00,
2013-03-25 07:00:00,61.7,58.4,29.79,SSW,209,0.0,5.0,89,0.00,,---,0.00,VWS V14.00,2013-03-25 11:00:00,
2013-03-25 07:02:00,61.6,58.3,29.79,SSW,209,0.0,0.0,89,0.00,,---,0.00,VWS V14.00,2013-03-25 11:02:00,
2013-03-25 07:07:00,61.5,57.9,29.79,WNW,288,1.0,4.0,88,0.00,,---,0.00,VWS V14.00,2013-03-25 11:07:00,
2013-03-25 07:13:00,61.4,57.8,29.79,NNW,330,0.0,4.0,88,0.00,,---,0.00,VWS V14.00,2013-03-25 11:13:00,
2013-03-25 07:18:00,61.2,57.6,29.80,SSW,211,0.0,4.0,88,0.00,,---,0.00,VWS V14.00,2013-03-25 11:18:00,
2013-03-25 07:23:00,61.1,57.5,29.80,West,268,0.0,6.0,88,0.00,,---,0.00,VWS V14.00,2013-03-25 11:23:00,
2013-03-25 07:28:00,61.0,57.1,29.80,SW,214,0.0,6.0,87,0.00,,---,0.00,VWS V14.00,2013-03-25 11:28:00,
2013-03-25 07:30:00,60.8,56.6,29.80,SW,216,0.0,6.0,86,0.00,,---,0.00,VWS V14.00,2013-03-25 11:30:00,
2013-03-25 07:33:00,60.7,56.2,29.80,WNW,294,0.0,4.0,85,0.00,,---,0.00,VWS V14.00,2013-03-25 11:33:00,
2013-03-25 07:38:00,60.0,51.0,29.81,SSE,164,0.0,7.0,72,0.00,,---,0.00,VWS V14.00,2013-03-25 11:38:00,
2013-03-25 07:44:00,59.7,47.5,29.81,WNW,286,0.0,7.0,64,0.00,,---,0.00,VWS V14.00,2013-03-25 11:44:00,
2013-03-25 07:49:00,59.4,45.1,29.82,NNW,327,0.0,9.0,59,0.00,,---,0.00,VWS V14.00,2013-03-25 11:49:00,
2013-03-25 07:54:00,59.0,44.3,29.82,NNW,336,0.0,9.0,58,0.00,,---,0.00,VWS V14.00,2013-03-25 11:54:00,
2013-03-25 07:59:00,59.0,44.3,29.82,NNW,340,0.0,9.0,58,0.00,,---,0.00,VWS V14.00,2013-03-25 11:59:00,
2013-03-25 08:00:00,59.0,44.3,29.82,NNW,340,0.0,9.0,58,0.00,,---,0.00,VWS V14.00,2013-03-25 12:00:00,
2013-03-25 08:05:00,59.0,45.2,29.83,NNW,329,3.0,4.0,60,0.00,,---,0.00,VWS V14.00,2013-03-25 12:05:00,
2013-03-25 08:10:00,58.9,45.5,29.83,NNW,334,0.0,9.0,61,0.00,,---,0.00,VWS V14.00,2013-03-25 12:10:00,
2013-03-25 08:15:00,58.8,46.2,29.83,WNW,298,0.0,9.0,63,0.00,,---,0.00,VWS V14.00,2013-03-25 12:15:00,
2013-03-25 08:20:00,58.7,46.6,29.84,NNW,346,0.0,10.0,64,0.00,,---,0.00,VWS V14.00,2013-03-25 12:20:00,
2013-03-25 08:25:00,58.6,47.3,29.84,WSW,244,0.0,10.0,66,0.00,,---,0.00,VWS V14.00,2013-03-25 12:25:00,
2013-03-25 08:30:00,58.5,47.2,29.84,NW,306,1.0,10.0,66,0.00,,---,0.00,VWS V14.00,2013-03-25 12:30:00,
2013-03-25 08:36:00,58.4,47.1,29.85,SW,225,2.0,4.0,66,0.00,,---,0.00,VWS V14.00,2013-03-25 12:36:00,
2013-03-25 08:41:00,58.3,44.5,29.85,WSW,245,1.0,7.0,60,0.00,,---,0.00,VWS V14.00,2013-03-25 12:41:00,
2013-03-25 08:46:00,58.1,43.9,29.86,NW,325,0.0,7.0,59,0.00,,---,0.00,VWS V14.00,2013-03-25 12:46:00,
2013-03-25 08:51:00,58.1,43.4,29.86,NNW,348,0.0,7.0,58,0.00,,---,0.00,VWS V14.00,2013-03-25 12:51:00,
2013-03-25 08:56:00,58.0,43.3,29.87,WSW,242,0.0,7.0,58,0.00,,---,0.00,VWS V14.00,2013-03-25 12:56:00,
2013-03-25 09:00:00,58.0,43.3,29.87,SSW,205,0.0,7.0,58,0.00,,---,0.00,VWS V14.00,2013-03-25 13:00:00,
2013-03-25 09:01:00,58.0,43.3,29.87,SSW,205,0.0,0.0,58,0.00,,---,0.00,VWS V14.00,2013-03-25 13:01:00,
2013-03-25 09:07:00,58.0,43.3,29.88,NW,316,2.0,9.0,58,0.00,,---,0.00,VWS V14.00,2013-03-25 13:07:00,
2013-03-25 09:12:00,58.0,42.4,29.88,NNW,331,0.0,9.0,56,0.00,,---,0.00,VWS V14.00,2013-03-25 13:12:00,
2013-03-25 09:17:00,58.1,43.0,29.88,NW,314,0.0,9.0,57,0.00,,---,0.00,VWS V14.00,2013-03-25 13:17:00,
2013-03-25 09:23:00,58.3,42.7,29.88,WSW,245,0.0,9.0,56,0.00,,---,0.00,VWS V14.00,2013-03-25 13:23:00,
2013-03-25 09:28:00,58.6,43.0,29.89,NNW,334,0.0,13.0,56,0.00,,---,0.00,VWS V14.00,2013-03-25 13:28:00,
2013-03-25 09:30:00,58.7,41.1,29.89,NW,318,0.0,14.0,52,0.00,,---,0.00,VWS V14.00,2013-03-25 13:30:00,
2013-03-25 09:33:00,58.7,41.1,29.89,North,355,5.0,5.0,52,0.00,,---,0.00,VWS V14.00,2013-03-25 13:33:00,
2013-03-25 09:38:00,58.6,41.0,29.89,NNW,346,0.0,6.0,52,0.00,,---,0.00,VWS V14.00,2013-03-25 13:38:00,
2013-03-25 09:43:00,58.7,40.1,29.89,NNE,24,0.0,6.0,50,0.00,,---,0.00,VWS V14.00,2013-03-25 13:43:00,
2013-03-25 09:49:00,58.9,40.8,29.89,NNW,338,0.0,10.0,51,0.00,,---,0.00,VWS V14.00,2013-03-25 13:49:00,
2013-03-25 09:54:00,59.0,39.4,29.90,West,280,4.0,10.0,48,0.00,,---,0.00,VWS V14.00,2013-03-25 13:54:00,
2013-03-25 09:59:00,59.1,39.5,29.90,North,355,1.0,10.0,48,0.00,,---,0.00,VWS V14.00,2013-03-25 13:59:00,
2013-03-25 10:00:00,59.3,39.6,29.90,NW,325,0.0,10.0,48,0.00,,---,0.00,VWS V14.00,2013-03-25 14:00:00,
2013-03-25 10:04:00,59.4,40.8,29.90,North,360,0.0,1.0,50,0.00,,---,0.00,VWS V14.00,2013-03-25 14:04:00,
2013-03-25 10:09:00,59.8,39.5,29.90,West,275,6.0,12.0,47,0.00,,---,0.00,VWS V14.00,2013-03-25 14:09:00,
2013-03-25 10:15:00,59.7,37.2,29.91,NNW,337,8.0,12.0,43,0.00,,---,0.00,VWS V14.00,2013-03-25 14:15:00,
2013-03-25 10:20:00,59.6,37.1,29.91,SW,226,1.0,12.0,43,0.00,,---,0.00,VWS V14.00,2013-03-25 14:20:00,
2013-03-25 10:25:00,59.9,38.0,29.91,NW,313,0.0,12.0,44,0.00,,---,0.00,VWS V14.00,2013-03-25 14:25:00,
2013-03-25 10:30:00,60.4,39.0,29.91,West,269,0.0,12.0,45,0.00,,---,0.00,VWS V14.00,2013-03-25 14:30:00,
2013-03-25 10:31:00,60.4,39.5,29.91,South,190,0.0,12.0,46,0.00,,---,0.00,VWS V14.00,2013-03-25 14:31:00,
2013-03-25 10:36:00,60.6,39.2,29.91,SE,146,0.0,6.0,45,0.00,,---,0.00,VWS V14.00,2013-03-25 14:36:00,
2013-03-25 10:41:00,60.7,39.8,29.92,SW,216,1.0,6.0,46,0.00,,---,0.00,VWS V14.00,2013-03-25 14:41:00,
2013-03-25 10:47:00,60.9,40.0,29.92,West,273,0.0,12.0,46,0.00,,---,0.00,VWS V14.00,2013-03-25 14:47:00,
2013-03-25 10:52:00,61.0,40.1,29.92,WNW,287,0.0,12.0,46,0.00,,---,0.00,VWS V14.00,2013-03-25 14:52:00,
2013-03-25 10:57:00,61.1,40.2,29.92,NNW,345,0.0,13.0,46,0.00,,---,0.00,VWS V14.00,2013-03-25 14:57:00,
2013-03-25 11:00:00,61.2,39.7,29.92,NW,307,0.0,13.0,45,0.00,,---,0.00,VWS V14.00,2013-03-25 15:00:00,
2013-03-25 11:02:00,61.2,39.7,29.92,NW,317,0.0,6.0,45,0.00,,---,0.00,VWS V14.00,2013-03-25 15:02:00,
2013-03-25 11:08:00,61.4,39.9,29.92,NNE,26,6.0,9.0,45,0.00,,---,0.00,VWS V14.00,2013-03-25 15:08:00,
2013-03-25 11:13:00,61.4,39.9,29.92,West,279,1.0,10.0,45,0.00,,---,0.00,VWS V14.00,2013-03-25 15:13:00,
2013-03-25 11:18:00,61.5,39.4,29.92,North,5,0.0,10.0,44,0.00,,---,0.00,VWS V14.00,2013-03-25 15:18:00,
2013-03-25 11:24:00,61.9,40.3,29.92,NNW,341,1.0,10.0,45,0.00,,---,0.00,VWS V14.00,2013-03-25 15:24:00,
2013-03-25 11:29:00,62.2,39.5,29.92,NW,315,0.0,10.0,43,0.00,,---,0.00,VWS V14.00,2013-03-25 15:29:00,
2013-03-25 11:30:00,62.4,40.8,29.93,NNW,347,2.0,10.0,45,0.00,,---,0.00,VWS V14.00,2013-03-25 15:30:00,
2013-03-25 11:34:00,62.6,39.8,29.93,North,360,7.0,7.0,43,0.00,,---,0.00,VWS V14.00,2013-03-25 15:34:00,
2013-03-25 11:39:00,62.9,38.2,29.93,SW,227,3.0,11.0,40,0.00,,---,0.00,VWS V14.00,2013-03-25 15:39:00,
2013-03-25 11:45:00,63.0,39.0,29.93,WNW,292,0.0,14.0,41,0.00,,---,0.00,VWS V14.00,2013-03-25 15:45:00,
2013-03-25 11:50:00,63.6,38.2,29.93,West,281,2.0,14.0,39,0.00,,---,0.00,VWS V14.00,2013-03-25 15:50:00,
2013-03-25 11:55:00,64.3,39.5,29.93,North,5,4.0,14.0,40,0.00,,---,0.00,VWS V14.00,2013-03-25 15:55:00,
2013-03-25 12:00:00,64.7,37.2,29.93,South,182,0.0,14.0,36,0.00,,---,0.00,VWS V14.00,2013-03-25 16:00:00,
2013-03-25 12:06:00,64.7,35.7,29.93,NW,309,0.0,6.0,34,0.00,,---,0.00,VWS V14.00,2013-03-25 16:06:00,
2013-03-25 12:11:00,64.7,35.0,29.93,NW,310,0.0,7.0,33,0.00,,---,0.00,VWS V14.00,2013-03-25 16:11:00,
2013-03-25 12:16:00,65.2,36.9,29.92,WSW,246,0.0,7.0,35,0.00,,---,0.00,VWS V14.00,2013-03-25 16:16:00,
2013-03-25 12:21:00,65.8,37.4,29.92,South,173,2.0,7.0,35,0.00,,---,0.00,VWS V14.00,2013-03-25 16:21:00,
2013-03-25 12:27:00,66.0,36.8,29.92,North,360,1.0,12.0,34,0.00,,---,0.00,VWS V14.00,2013-03-25 16:27:00,
2013-03-25 12:30:00,66.1,37.7,29.93,SW,218,0.0,12.0,35,0.00,,---,0.00,VWS V14.00,2013-03-25 16:30:00,
2013-03-25 12:33:00,66.2,38.5,29.92,West,277,2.0,3.0,36,0.00,,---,0.00,VWS V14.00,2013-03-25 16:33:00,
2013-03-25 12:38:00,66.9,41.8,29.92,SSW,202,0.0,6.0,40,0.00,,---,0.00,VWS V14.00,2013-03-25 16:38:00,
2013-03-25 12:43:00,66.7,41.6,29.92,SW,218,0.0,7.0,40,0.00,,---,0.00,VWS V14.00,2013-03-25 16:43:00,
2013-03-25 12:49:00,66.4,40.7,29.92,SW,236,0.0,10.0,39,0.00,,---,0.00,VWS V14.00,2013-03-25 16:49:00,
2013-03-25 12:54:00,66.4,42.0,29.91,WSW,244,1.0,10.0,41,0.00,,---,0.00,VWS V14.00,2013-03-25 16:54:00,
2013-03-25 12:59:00,66.6,40.9,29.92,SW,219,3.0,11.0,39,0.00,,---,0.00,VWS V14.00,2013-03-25 16:59:00,
2013-03-25 13:00:00,66.5,40.8,29.91,WSW,245,9.0,12.0,39,0.00,,---,0.00,VWS V14.00,2013-03-25 17:00:00,
2013-03-25 13:04:00,66.3,40.0,29.91,SSW,207,0.0,10.0,38,0.00,,---,0.00,VWS V14.00,2013-03-25 17:04:00,
2013-03-25 13:09:00,66.7,39.6,29.91,WSW,245,0.0,13.0,37,0.00,,---,0.00,VWS V14.00,2013-03-25 17:09:00,
2013-03-25 13:15:00,67.0,38.5,29.91,SSW,196,3.0,13.0,35,0.00,,---,0.00,VWS V14.00,2013-03-25 17:15:00,
2013-03-25 13:20:00,67.3,37.2,29.91,WSW,246,0.0,13.0,33,0.00,,---,0.00,VWS V14.00,2013-03-25 17:20:00,
2013-03-25 13:25:00,67.9,37.8,29.91,SSW,210,0.0,13.0,33,0.00,,---,0.00,VWS V14.00,2013-03-25 17:25:00,
2013-03-25 13:30:00,67.9,36.2,29.91,SSE,163,0.0,13.0,31,0.00,,---,0.00,VWS V14.00,2013-03-25 17:30:00,
2013-03-25 13:35:00,68.1,36.3,29.90,WSW,248,7.0,9.0,31,0.00,,---,0.00,VWS V14.00,2013-03-25 17:35:00,
2013-03-25 13:41:00,68.2,37.2,29.90,SW,229,0.0,12.0,32,0.01,,---,0.01,VWS V14.00,2013-03-25 17:41:00,
2013-03-25 13:46:00,68.7,36.9,29.90,SW,214,2.0,18.0,31,0.01,,---,0.01,VWS V14.00,2013-03-25 17:46:00,
2013-03-25 13:52:00,69.1,36.4,29.90,WSW,250,4.0,18.0,30,0.01,,---,0.01,VWS V14.00,2013-03-25 17:52:00,
2013-03-25 13:57:00,69.0,36.3,29.90,ENE,76,0.0,18.0,30,0.01,,---,0.01,VWS V14.00,2013-03-25 17:57:00,
2013-03-25 14:00:00,69.2,38.1,29.89,SW,221,4.0,18.0,32,0.01,,---,0.01,VWS V14.00,2013-03-25 18:00:00,
2013-03-25 14:02:00,69.4,38.3,29.89,NW,304,0.0,6.0,32,0.01,,---,0.01,VWS V14.00,2013-03-25 18:02:00,
2013-03-25 14:08:00,69.7,36.9,29.89,SW,221,0.0,10.0,30,0.01,,---,0.01,VWS V14.00,2013-03-25 18:08:00,
2013-03-25 14:13:00,70.1,38.9,29.90,WNW,298,0.0,10.0,32,0.01,,---,0.01,VWS V14.00,2013-03-25 18:13:00,
2013-03-25 14:18:00,70.5,39.2,29.89,NW,317,4.0,13.0,32,0.01,,---,0.01,VWS V14.00,2013-03-25 18:18:00,
2013-03-25 14:23:00,70.5,37.6,29.89,WSW,245,0.0,13.0,30,0.01,,---,0.01,VWS V14.00,2013-03-25 18:23:00,
2013-03-25 14:29:00,70.4,38.3,29.89,SSE,164,0.0,13.0,31,0.01,,---,0.01,VWS V14.00,2013-03-25 18:29:00,
2013-03-25 14:30:00,70.6,39.3,29.88,NE,51,0.0,13.0,32,0.01,,---,0.01,VWS V14.00,2013-03-25 18:30:00,
2013-03-25 14:34:00,70.9,38.0,29.88,WSW,257,0.0,10.0,30,0.01,,---,0.01,VWS V14.00,2013-03-25 18:34:00,
2013-03-25 14:39:00,71.1,38.1,29.88,SW,217,1.0,10.0,30,0.01,,---,0.01,VWS V14.00,2013-03-25 18:39:00,
2013-03-25 14:44:00,70.9,38.0,29.88,NE,37,2.0,12.0,30,0.01,,---,0.01,VWS V14.00,2013-03-25 18:44:00,
2013-03-25 14:49:00,70.7,39.4,29.88,SW,227,1.0,13.0,32,0.01,,---,0.01,VWS V14.00,2013-03-25 18:49:00,
2013-03-25 14:55:00,71.1,38.1,29.88,SW,225,0.0,13.0,30,0.01,,---,0.01,VWS V14.00,2013-03-25 18:55:00,
2013-03-25 15:00:00,71.1,37.3,29.88,WNW,282,0.0,13.0,29,0.01,,---,0.01,VWS V14.00,2013-03-25 19:00:00,
2013-03-25 15:05:00,71.3,36.5,29.89,SSW,210,2.0,10.0,28,0.00,,---,0.01,VWS V14.00,2013-03-25 19:05:00,
2013-03-25 15:10:00,71.1,33.5,29.88,SW,221,4.0,11.0,25,0.00,,---,0.01,VWS V14.00,2013-03-25 19:10:00,
2013-03-25 15:15:00,71.0,36.3,29.88,NW,312,0.0,13.0,28,0.00,,---,0.01,VWS V14.00,2013-03-25 19:15:00,
2013-03-25 15:21:00,71.4,35.7,29.88,WSW,256,1.0,13.0,27,0.00,,---,0.01,VWS V14.00,2013-03-25 19:21:00,
2013-03-25 15:27:00,71.8,34.1,29.88,NNW,328,1.0,13.0,25,0.00,,---,0.01,VWS V14.00,2013-03-25 19:27:00,
2013-03-25 15:30:00,71.3,33.7,29.88,South,170,8.0,13.0,25,0.00,,---,0.01,VWS V14.00,2013-03-25 19:30:00,
2013-03-25 15:32:00,71.2,33.6,29.88,SSE,150,0.0,8.0,25,0.00,,---,0.01,VWS V14.00,2013-03-25 19:32:00,
2013-03-25 15:37:00,71.1,34.5,29.88,NNW,340,8.0,9.0,26,0.00,,---,0.01,VWS V14.00,2013-03-25 19:37:00,
2013-03-25 15:43:00,71.1,34.5,29.88,WSW,249,3.0,12.0,26,0.00,,---,0.01,VWS V14.00,2013-03-25 19:43:00,
2013-03-25 15:48:00,71.0,36.3,29.88,NNW,329,0.0,12.0,28,0.00,,---,0.01,VWS V14.00,2013-03-25 19:48:00,
2013-03-25 15:53:00,71.3,33.7,29.88,SE,127,3.0,12.0,25,0.00,,---,0.01,VWS V14.00,2013-03-25 19:53:00,
2013-03-25 15:58:00,71.3,33.7,29.88,WSW,242,2.0,13.0,25,0.00,,---,0.01,VWS V14.00,2013-03-25 19:58:00,
2013-03-25 16:00:00,71.2,33.6,29.87,North,355,0.0,13.0,25,0.00,,---,0.01,VWS V14.00,2013-03-25 20:00:00,
2013-03-25 16:03:00,71.3,33.7,29.87,North,355,0.0,6.0,25,0.00,,---,0.01,VWS V14.00,2013-03-25 20:03:00,
2013-03-25 16:08:00,71.4,35.7,29.87,NW,309,0.0,9.0,27,0.00,,---,0.01,VWS V14.00,2013-03-25 20:08:00,
2013-03-25 16:14:00,71.6,34.9,29.87,NW,312,0.0,9.0,26,0.00,,---,0.01,VWS V14.00,2013-03-25 20:14:00,
2013-03-25 16:19:00,71.3,35.6,29.87,North,11,0.0,9.0,27,0.00,,---,0.01,VWS V14.00,2013-03-25 20:19:00,
2013-03-25 16:24:00,71.8,37.0,29.86,SW,225,0.0,9.0,28,0.00,,---,0.01,VWS V14.00,2013-03-25 20:24:00,
2013-03-25 16:29:00,72.5,38.5,29.87,NW,313,4.0,9.0,29,0.00,,---,0.01,VWS V14.00,2013-03-25 20:29:00,
2013-03-25 16:30:00,72.6,37.7,29.87,SSW,194,6.0,9.0,28,0.00,,---,0.01,VWS V14.00,2013-03-25 20:30:00,
2013-03-25 16:34:00,72.4,38.4,29.86,North,350,3.0,10.0,29,0.00,,---,0.01,VWS V14.00,2013-03-25 20:34:00,
2013-03-25 16:40:00,72.2,38.2,29.86,South,178,0.0,10.0,29,0.00,,---,0.01,VWS V14.00,2013-03-25 20:40:00,
2013-03-25 16:45:00,72.3,36.5,29.87,SSE,156,0.0,10.0,27,0.00,,---,0.01,VWS V14.00,2013-03-25 20:45:00,
2013-03-25 16:50:00,72.1,34.4,29.87,SW,224,0.0,14.0,25,0.00,,---,0.01,VWS V14.00,2013-03-25 20:50:00,
2013-03-25 16:55:00,72.0,35.3,29.87,NNW,336,0.0,14.0,26,0.00,,---,0.01,VWS V14.00,2013-03-25 20:55:00,
2013-03-25 17:00:00,71.7,35.0,29.87,SSW,213,0.0,14.0,26,0.00,,---,0.01,VWS V14.00,2013-03-25 21:00:00,
2013-03-25 17:05:00,71.5,33.9,29.86,WSW,248,1.0,7.0,25,0.00,,---,0.01,VWS V14.00,2013-03-25 21:05:00,
2013-03-25 17:10:00,71.5,34.8,29.87,SW,221,0.0,11.0,26,0.00,,---,0.01,VWS V14.00,2013-03-25 21:10:00,
2013-03-25 17:15:00,71.6,34.0,29.87,WNW,303,5.0,11.0,25,0.00,,---,0.01,VWS V14.00,2013-03-25 21:15:00,
2013-03-25 17:21:00,71.6,34.0,29.87,NNW,331,5.0,11.0,25,0.00,,---,0.01,VWS V14.00,2013-03-25 21:21:00,
2013-03-25 17:27:00,71.4,34.8,29.87,North,355,0.0,11.0,26,0.00,,---,0.01,VWS V14.00,2013-03-25 21:27:00,
2013-03-25 17:30:00,71.5,33.9,29.87,North,350,1.0,11.0,25,0.00,,---,0.01,VWS V14.00,2013-03-25 21:30:00,
2013-03-25 17:32:00,71.5,33.9,29.87,North,350,0.0,1.0,25,0.00,,---,0.01,VWS V14.00,2013-03-25 21:32:00,
2013-03-25 17:37:00,71.5,35.8,29.87,West,263,0.0,11.0,27,0.00,,---,0.01,VWS V14.00,2013-03-25 21:37:00,
2013-03-25 17:42:00,71.2,35.5,29.87,WNW,300,0.0,11.0,27,0.00,,---,0.01,VWS V14.00,2013-03-25 21:42:00,
2013-03-25 17:47:00,70.7,36.0,29.87,WSW,252,0.0,11.0,28,0.00,,---,0.01,VWS V14.00,2013-03-25 21:47:00,
2013-03-25 17:53:00,70.3,35.7,29.87,WNW,299,0.0,11.0,28,0.00,,---,0.01,VWS V14.00,2013-03-25 21:53:00,
2013-03-25 17:58:00,69.9,34.4,29.87,West,280,0.0,11.0,27,0.00,,---,0.01,VWS V14.00,2013-03-25 21:58:00,
2013-03-25 18:00:00,69.7,35.2,29.87,WSW,254,0.0,11.0,28,0.00,,---,0.01,VWS V14.00,2013-03-25 22:00:00,
2013-03-25 18:03:00,69.8,35.3,29.87,WSW,244,0.0,1.0,28,0.00,,---,0.01,VWS V14.00,2013-03-25 22:03:00,
2013-03-25 18:09:00,69.9,37.1,29.87,WSW,250,0.0,5.0,30,0.00,,---,0.01,VWS V14.00,2013-03-25 22:09:00,
2013-03-25 18:14:00,69.8,38.6,29.87,SW,219,0.0,5.0,32,0.00,,---,0.01,VWS V14.00,2013-03-25 22:14:00,
2013-03-25 18:19:00,69.7,39.3,29.87,NW,317,0.0,5.0,33,0.00,,---,0.01,VWS V14.00,2013-03-25 22:19:00,
2013-03-25 18:24:00,69.4,39.1,29.88,WSW,256,0.0,5.0,33,0.00,,---,0.01,VWS V14.00,2013-03-25 22:24:00,
2013-03-25 18:29:00,69.2,39.7,29.88,NW,322,6.0,6.0,34,0.00,,---,0.01,VWS V14.00,2013-03-25 22:29:00,
2013-03-25 18:30:00,69.1,39.6,29.88,NW,314,0.0,7.0,34,0.00,,---,0.01,VWS V14.00,2013-03-25 22:30:00,
2013-03-25 18:35:00,68.9,39.4,29.88,SW,229,0.0,2.0,34,0.00,,---,0.01,VWS V14.00,2013-03-25 22:35:00,
2013-03-25 18:40:00,68.8,39.3,29.89,West,270,0.0,6.0,34,0.00,,---,0.01,VWS V14.00,2013-03-25 22:40:00,
2013-03-25 18:45:00,68.7,40.7,29.89,WSW,246,0.0,6.0,36,0.00,,---,0.01,VWS V14.00,2013-03-25 22:45:00,
2013-03-25 18:50:00,68.7,41.4,29.89,SW,221,0.0,6.0,37,0.00,,---,0.01,VWS V14.00,2013-03-25 22:50:00,
2013-03-25 18:55:00,68.2,41.0,29.90,South,175,0.0,10.0,37,0.00,,---,0.01,VWS V14.00,2013-03-25 22:55:00,
2013-03-25 19:00:00,67.3,40.8,29.90,SW,219,0.0,12.0,38,0.00,,---,0.01,VWS V14.00,2013-03-25 23:00:00,
2013-03-25 19:01:00,67.4,40.9,29.90,WSW,253,10.0,12.0,38,0.00,,---,0.01,VWS V14.00,2013-03-25 23:01:00,
2013-03-25 19:06:00,66.6,40.9,29.90,WSW,244,0.0,13.0,39,0.00,,---,0.01,VWS V14.00,2013-03-25 23:06:00,
2013-03-25 19:12:00,66.2,41.2,29.91,WSW,238,0.0,13.0,40,0.00,,---,0.01,VWS V14.00,2013-03-25 23:12:00,
2013-03-25 19:17:00,65.7,40.7,29.91,WSW,257,2.0,13.0,40,0.00,,---,0.01,VWS V14.00,2013-03-25 23:17:00,
2013-03-25 19:22:00,65.3,40.4,29.91,SW,230,1.0,13.0,40,0.00,,---,0.01,VWS V14.00,2013-03-25 23:22:00,
2013-03-25 19:27:00,64.8,40.6,29.92,SSW,207,0.0,13.0,41,0.00,,---,0.01,VWS V14.00,2013-03-25 23:27:00,
2013-03-25 19:30:00,64.5,40.9,29.92,WSW,250,0.0,13.0,42,0.00,,---,0.01,VWS V14.00,2013-03-25 23:30:00,
2013-03-25 19:32:00,64.4,40.8,29.92,WSW,250,0.0,0.0,42,0.00,,---,0.01,VWS V14.00,2013-03-25 23:32:00,
2013-03-25 19:38:00,64.1,40.6,29.92,WSW,248,0.0,6.0,42,0.00,,---,0.01,VWS V14.00,2013-03-25 23:38:00,
2013-03-25 19:43:00,63.8,41.5,29.92,SW,225,0.0,6.0,44,0.00,,---,0.01,VWS V14.00,2013-03-25 23:43:00,
2013-03-25 19:48:00,63.4,41.7,29.92,SW,226,0.0,6.0,45,0.00,,---,0.01,VWS V14.00,2013-03-25 23:48:00,
2013-03-25 19:54:00,63.0,41.3,29.92,West,268,0.0,6.0,45,0.00,,---,0.01,VWS V14.00,2013-03-25 23:54:00,
2013-03-25 19:59:00,62.7,41.6,29.92,West,268,0.0,6.0,46,0.00,,---,0.01,VWS V14.00,2013-03-25 23:59:00,
2013-03-25 20:00:00,62.5,41.5,29.92,West,269,0.0,6.0,46,0.00,,---,0.01,VWS V14.00,2013-03-26 00:00:00,
2013-03-25 20:04:00,62.3,41.8,29.93,West,268,0.0,0.0,47,0.00,,---,0.01,VWS V14.00,2013-03-26 00:04:00,
2013-03-25 20:09:00,62.0,41.6,29.93,SW,236,0.0,6.0,47,0.00,,---,0.01,VWS V14.00,2013-03-26 00:09:00,
2013-03-25 20:14:00,61.7,41.8,29.94,SW,221,0.0,6.0,48,0.00,,---,0.01,VWS V14.00,2013-03-26 00:14:00,
2013-03-25 20:19:00,61.4,41.6,29.94,WSW,242,0.0,6.0,48,0.00,,---,0.01,VWS V14.00,2013-03-26 00:19:00,
2013-03-25 20:24:00,61.1,40.7,29.95,West,277,2.0,11.0,47,0.00,,---,0.01,VWS V14.00,2013-03-26 00:24:00,
2013-03-25 20:29:00,60.8,41.0,29.95,WSW,237,0.0,11.0,48,0.00,,---,0.01,VWS V14.00,2013-03-26 00:29:00,
2013-03-25 20:30:00,60.7,40.9,29.95,WSW,237,0.0,11.0,48,0.00,,---,0.01,VWS V14.00,2013-03-26 00:30:00,
2013-03-25 20:35:00,60.5,41.3,29.95,WSW,250,0.0,6.0,49,0.00,,---,0.01,VWS V14.00,2013-03-26 00:35:00,
2013-03-25 20:40:00,60.2,41.5,29.95,SW,227,0.0,6.0,50,0.00,,---,0.01,VWS V14.00,2013-03-26 00:40:00,
2013-03-25 20:45:00,59.8,41.7,29.95,SSW,200,0.0,6.0,51,0.00,,---,0.01,VWS V14.00,2013-03-26 00:45:00,
2013-03-25 20:50:00,59.4,40.8,29.96,SW,226,1.0,6.0,50,0.00,,---,0.01,VWS V14.00,2013-03-26 00:50:00,
2013-03-25 20:55:00,59.0,40.9,29.96,SW,231,0.0,6.0,51,0.00,,---,0.01,VWS V14.00,2013-03-26 00:55:00,
2013-03-25 21:00:00,58.7,40.6,29.96,WSW,246,0.0,6.0,51,0.00,,---,0.01,VWS V14.00,2013-03-26 01:00:00,
2013-03-25 21:06:00,58.4,40.4,29.97,West,260,1.0,4.0,51,0.00,,---,0.01,VWS V14.00,2013-03-26 01:06:00,
2013-03-25 21:11:00,58.1,40.6,29.97,SW,221,0.0,10.0,52,0.00,,---,0.01,VWS V14.00,2013-03-26 01:11:00,
2013-03-25 21:16:00,57.8,40.8,29.97,SW,216,0.0,10.0,53,0.00,,---,0.01,VWS V14.00,2013-03-26 01:16:00,
2013-03-25 21:21:00,57.5,40.5,29.97,SW,235,0.0,10.0,53,0.00,,---,0.01,VWS V14.00,2013-03-26 01:21:00,
2013-03-25 21:27:00,57.2,40.2,29.97,SW,232,0.0,10.0,53,0.00,,---,0.01,VWS V14.00,2013-03-26 01:27:00,
2013-03-25 21:30:00,56.9,40.0,29.98,ENE,58,0.0,10.0,53,0.00,,---,0.01,VWS V14.00,2013-03-26 01:30:00,
2013-03-25 21:32:00,56.9,40.0,29.98,NNW,343,0.0,1.0,53,0.00,,---,0.01,VWS V14.00,2013-03-26 01:32:00,
2013-03-25 21:37:00,56.7,39.8,29.98,WSW,239,0.0,6.0,53,0.00,,---,0.01,VWS V14.00,2013-03-26 01:37:00,
2013-03-25 21:42:00,56.6,39.7,29.98,WSW,241,0.0,10.0,53,0.00,,---,0.01,VWS V14.00,2013-03-26 01:42:00,
2013-03-25 21:47:00,56.4,39.5,29.99,SSW,206,0.0,10.0,53,0.00,,---,0.01,VWS V14.00,2013-03-26 01:47:00,
2013-03-25 21:52:00,56.2,39.3,30.00,NW,318,0.0,10.0,53,0.00,,---,0.01,VWS V14.00,2013-03-26 01:52:00,
2013-03-25 21:57:00,56.0,39.6,30.00,WSW,250,0.0,10.0,54,0.00,,---,0.01,VWS V14.00,2013-03-26 01:57:00,
2013-03-25 22:00:00,56.0,39.6,30.00,WSW,248,0.0,10.0,54,0.00,,---,0.01,VWS V14.00,2013-03-26 02:00:00,
2013-03-25 22:02:00,55.9,39.5,30.01,SW,222,0.0,6.0,54,0.00,,---,0.01,VWS V14.00,2013-03-26 02:02:00,
2013-03-25 22:08:00,55.8,39.9,30.01,North,351,6.0,6.0,55,0.00,,---,0.01,VWS V14.00,2013-03-26 02:08:00,
2013-03-25 22:13:00,55.7,39.3,30.01,SW,234,0.0,6.0,54,0.00,,---,0.01,VWS V14.00,2013-03-26 02:13:00,
2013-03-25 22:18:00,55.6,39.2,30.01,WSW,257,0.0,6.0,54,0.00,,---,0.01,VWS V14.00,2013-03-26 02:18:00,
2013-03-25 22:23:00,55.5,39.6,30.02,WSW,241,0.0,6.0,55,0.00,,---,0.01,VWS V14.00,2013-03-26 02:23:00,
2013-03-25 22:28:00,55.4,39.5,30.02,SW,223,0.0,6.0,55,0.00,,---,0.01,VWS V14.00,2013-03-26 02:28:00,
2013-03-25 22:30:00,55.3,39.4,30.02,SSW,213,0.0,6.0,55,0.00,,---,0.01,VWS V14.00,2013-03-26 02:30:00,
2013-03-25 22:33:00,55.3,39.4,30.02,WSW,237,0.0,4.0,55,0.00,,---,0.01,VWS V14.00,2013-03-26 02:33:00,
2013-03-25 22:38:00,55.1,39.7,30.02,SW,223,0.0,4.0,56,0.00,,---,0.01,VWS V14.00,2013-03-26 02:38:00,
2013-03-25 22:44:00,55.0,39.6,30.03,WNW,296,0.0,4.0,56,0.00,,---,0.01,VWS V14.00,2013-03-26 02:44:00,
2013-03-25 22:49:00,54.8,39.9,30.03,WNW,296,0.0,4.0,57,0.00,,---,0.01,VWS V14.00,2013-03-26 02:49:00,
2013-03-25 22:54:00,54.6,39.7,30.03,West,265,0.0,4.0,57,0.00,,---,0.01,VWS V14.00,2013-03-26 02:54:00,
2013-03-25 22:59:00,54.4,39.5,30.04,West,267,0.0,4.0,57,0.00,,---,0.01,VWS V14.00,2013-03-26 02:59:00,
2013-03-25 23:00:00,54.3,39.8,30.03,SW,236,0.0,4.0,58,0.00,,---,0.01,VWS V14.00,2013-03-26 03:00:00,
2013-03-25 23:05:00,54.2,39.3,30.04,SW,217,0.0,1.0,57,0.00,,---,0.01,VWS V14.00,2013-03-26 03:05:00,
2013-03-25 23:10:00,54.1,39.7,30.03,WSW,248,0.0,1.0,58,0.00,,---,0.01,VWS V14.00,2013-03-26 03:10:00,
2013-03-25 23:15:00,54.0,39.6,30.03,WSW,248,0.0,1.0,58,0.00,,---,0.01,VWS V14.00,2013-03-26 03:15:00,
2013-03-25 23:20:00,53.8,39.4,30.04,WSW,248,0.0,1.0,58,0.00,,---,0.01,VWS V14.00,2013-03-26 03:20:00,
2013-03-25 23:25:00,53.6,39.6,30.04,NW,310,0.0,1.0,59,0.00,,---,0.01,VWS V14.00,2013-03-26 03:25:00,
2013-03-25 23:30:00,53.5,40.0,30.04,SW,236,0.0,1.0,60,0.00,,---,0.01,VWS V14.00,2013-03-26 03:30:00,
2013-03-25 23:35:00,53.3,39.8,30.04,SW,236,0.0,0.0,60,0.00,,---,0.01,VWS V14.00,2013-03-26 03:35:00,
2013-03-25 23:41:00,53.1,39.6,30.04,SW,236,0.0,0.0,60,0.00,,---,0.01,VWS V14.00,2013-03-26 03:41:00,
2013-03-25 23:47:00,52.9,39.8,30.04,WSW,237,0.0,0.0,61,0.00,,---,0.01,VWS V14.00,2013-03-26 03:47:00,
2013-03-25 23:52:00,52.7,39.6,30.04,WSW,237,0.0,0.0,61,0.00,,---,0.01,VWS V14.00,2013-03-26 03:52:00,
2013-03-25 23:57:00,52.6,40.0,30.04,SW,236,0.0,0.0,62,0.00,,---,0.01,VWS V14.00,2013-03-26 03:57:00,